Weather History for Jackson, WY

Change the Weather History Date:

Friday, July 5, 2013

  Actual Average Record
Temperature  
Mean Temperature 68 °F -  
Max Temperature 82 °F 78 °F 89 °F (2007)
Min Temperature 53 °F 38 °F 32 °F (1969)
Cooling Degree Days 2    
Growing Degree Days 18 (Base 50)    
Moisture  
Dew Point 48 °F    
Average Humidity 64    
Maximum Humidity 94    
Minimum Humidity 25    
Precipitation  
Precipitation 0.00 in - - ()
Sea Level Pressure  
Sea Level Pressure 30.04 in    
Wind  
Wind Speed 5 mph (SSW)    
Max Wind Speed 20 mph    
Max Gust Speed 25 mph    
Visibility 10 miles    
Events      
Averages and records for this station are not official NWS values.
T = Trace of Precipitation, MM = Missing Value Source: NWS Daily Summary

Daily Weather History Graph

Daily Weather History Graph

Search for Another Location

Airport:

Trip Planner

Search our weather history database for the weather conditions in past years. The results will help you decide how hot, cold, wet, or windy it might be!

Date:

Astronomy

Jul. 05, 2013 Rise Set
Actual Time 5:47 AM MDT 9:06 PM MDT
Civil Twilight 5:12 AM MDT 9:42 PM MDT
Nautical Twilight 4:26 AM MDT 10:28 PM MDT
Astronomical Twilight 3:29 AM MDT 11:25 PM MDT
Moon 3:51 AM MDT (7/5) 7:03 PM MDT (7/5)
Length of Visible Light 16h 29m
Length of Day
15h 19m
Waning Crescent, 6% of the Moon is Illuminated
Jul 5
Waning Crescent
Jul 8
New
Jul 15
First Quarter
Jul 22
Full
Jul 29
Last Quarter

Hourly Weather History & Observations

Time (MDT) Temp. Dew Point Humidity Pressure Visibility Wind Dir Wind Speed Gust Speed Precip Events Conditions
12:15 AM 60.8 °F 53.6 °F 77% 30.07 in 10.0 mi Calm Calm - N/A   Scattered Clouds
12:35 AM 60.8 °F 53.6 °F 77% 30.07 in 10.0 mi SE 5.8 mph - N/A   Scattered Clouds
12:55 AM 57.2 °F 51.8 °F 82% 30.06 in 10.0 mi Calm Calm - N/A   Scattered Clouds
1:15 AM 57.2 °F 51.8 °F 82% 30.05 in 10.0 mi East 3.5 mph - N/A   Clear
1:35 AM 55.4 °F 51.8 °F 88% 30.06 in 10.0 mi Calm Calm - N/A   Clear
1:56 AM 57.2 °F 51.8 °F 82% 30.06 in 10.0 mi North 3.5 mph - N/A   Partly Cloudy
2:15 AM 55.4 °F 51.8 °F 88% 30.07 in 10.0 mi North 8.1 mph - N/A   Mostly Cloudy
2:35 AM 57.2 °F 53.6 °F 88% 30.07 in 10.0 mi North 5.8 mph - N/A   Partly Cloudy
2:55 AM 57.2 °F 53.6 °F 88% 30.07 in 10.0 mi North 4.6 mph - N/A   Mostly Cloudy
3:35 AM 57.2 °F 53.6 °F 88% 30.07 in 10.0 mi Calm Calm - N/A   Mostly Cloudy
3:55 AM 55.4 °F 53.6 °F 94% 30.07 in 10.0 mi NW 3.5 mph - N/A   Mostly Cloudy
4:15 AM 57.2 °F 53.6 °F 88% 30.07 in 10.0 mi Calm Calm - N/A   Partly Cloudy
4:35 AM 55.4 °F 51.8 °F 88% 30.06 in 10.0 mi East 4.6 mph - N/A   Partly Cloudy
4:55 AM 55.4 °F 51.8 °F 88% 30.06 in 10.0 mi Calm Calm - N/A   Scattered Clouds
5:15 AM 53.6 °F 51.8 °F 94% 30.06 in 10.0 mi North 4.6 mph - N/A   Mostly Cloudy
5:36 AM 53.6 °F 51.8 °F 94% 30.06 in 10.0 mi North 5.8 mph - N/A   Mostly Cloudy
5:55 AM 53.6 °F 51.8 °F 94% 30.06 in 10.0 mi NNE 5.8 mph - N/A   Scattered Clouds
6:15 AM 55.4 °F 51.8 °F 88% 30.06 in 10.0 mi NNE 3.5 mph - N/A   Scattered Clouds
6:52 AM 53.6 °F 51.8 °F 94% 30.07 in 10.0 mi NW 8.1 mph - N/A   Partly Cloudy
7:51 AM 57.2 °F 53.6 °F 88% 30.08 in 10.0 mi NNW 6.9 mph - N/A   Scattered Clouds
8:51 AM 60.8 °F 35.6 °F 39% 30.08 in 10.0 mi Calm Calm - N/A   Scattered Clouds
9:53 AM 66.2 °F 53.6 °F 64% 30.06 in 10.0 mi SE 5.8 mph - N/A   Partly Cloudy
10:54 AM 71.6 °F 53.6 °F 53% 30.04 in 10.0 mi South 10.4 mph - N/A   Scattered Clouds
11:51 AM 75.2 °F 48.2 °F 38% 30.04 in 10.0 mi SSW 11.5 mph 17.3 mph N/A   Clear
12:51 PM 75.2 °F 46.4 °F 36% 30.03 in 10.0 mi West 10.4 mph - N/A   Mostly Cloudy
1:51 PM 80.6 °F 44.6 °F 28% 30.02 in 10.0 mi SSW 17.3 mph 25.3 mph N/A   Scattered Clouds
2:54 PM 80.6 °F 44.6 °F 28% 30.00 in 10.0 mi South 8.1 mph 17.3 mph N/A   Scattered Clouds
3:55 PM 82.4 °F 42.8 °F 25% 29.97 in 10.0 mi South 12.7 mph 21.9 mph N/A   Scattered Clouds
4:54 PM 75.2 °F 44.6 °F 34% 29.96 in 10.0 mi South 18.4 mph 21.9 mph N/A   Scattered Clouds
5:54 PM 77.0 °F 42.8 °F 29% 29.95 in 10.0 mi South 12.7 mph 19.6 mph N/A   Scattered Clouds
6:51 PM 75.2 °F 44.6 °F 34% 29.96 in 10.0 mi South 8.1 mph 19.6 mph N/A   Partly Cloudy
7:51 PM 71.6 °F 44.6 °F 38% 29.97 in 10.0 mi South 13.8 mph - N/A   Scattered Clouds
8:51 PM 69.8 °F 39.2 °F 33% 30.03 in 10.0 mi South 19.6 mph 25.3 mph N/A   Partly Cloudy
9:15 PM 66.2 °F 37.4 °F 35% 30.02 in 10.0 mi South 13.8 mph - N/A   Partly Cloudy
9:35 PM 64.4 °F 37.4 °F 37% 30.03 in 10.0 mi South 10.4 mph - N/A   Clear
10:15 PM 62.6 °F 39.2 °F 42% 30.05 in 10.0 mi SW 11.5 mph 18.4 mph N/A   Clear
10:35 PM 60.8 °F 41.0 °F 48% 30.05 in 10.0 mi WSW 10.4 mph - N/A   Clear
11:15 PM 59.0 °F 42.8 °F 55% 30.06 in 10.0 mi SW 9.2 mph - N/A   Clear
11:35 PM 57.2 °F 42.8 °F 59% 30.06 in 10.0 mi WSW 9.2 mph - N/A   Clear
11:55 PM 57.2 °F 42.8 °F 59% 30.06 in 10.0 mi SW 9.2 mph - N/A   Clear